Weather History for Nashua, NH

Change the Weather History Date:

Friday, February 4, 2011

  Actual Average Record
Temperature  
Mean Temperature 16 °F -  
Max Temperature 35 °F 32 °F 62 °F (1991)
Min Temperature -4 °F 11 °F -19 °F (1971)
Degree Days  
Heating Degree Days 50    
Moisture  
Dew Point 2 °F    
Average Humidity 55    
Maximum Humidity 83    
Minimum Humidity 25    
Precipitation  
Precipitation 0.00 in - - ()
Sea Level Pressure  
Sea Level Pressure 30.12 in    
Wind  
Wind Speed 3 mph (WSW)    
Max Wind Speed 14 mph    
Max Gust Speed 26 mph    
Visibility 10 miles    
Events Rain    
Averages and records for this station are not official NWS values.
T = Trace of Precipitation, MM = Missing Value Source: NWS Daily Summary

Daily Weather History Graph

Daily Weather History Graph

Search for Another Location

Airport:

Trip Planner

Search our weather history database for the weather conditions in past years. The results will help you decide how hot, cold, wet, or windy it might be!

Date:

Astronomy

Feb. 04, 2011 Rise Set
Actual Time 6:57 AM EST 5:02 PM EST
Civil Twilight 6:27 AM EST 5:32 PM EST
Nautical Twilight 5:54 AM EST 6:06 PM EST
Astronomical Twilight 5:21 AM EST 6:39 PM EST
Moon 7:20 AM EST (2/4) 6:55 PM EST (2/4)
Length of Visible Light 11h 04m
Length of Day
10h 05m
New Moon, 2% of the Moon is Illuminated
Feb 4
New Moon
Feb 11
First Quarter
Feb 18
Full
Feb 24
Last Quarter
Mar 4
New

Hourly Weather History & Observations

Time (EST) Temp. Windchill Dew Point Humidity Pressure Visibility Wind Dir Wind Speed Gust Speed Precip Events Conditions
12:51 AM 2.1 °F - -1.8 °F 83% 30.27 in 10.0 mi Calm Calm - N/A   Clear
1:51 AM 1.0 °F - -4.0 °F 79% 30.25 in 10.0 mi Calm Calm - N/A   Clear
2:51 AM -1.8 °F - -6.9 °F 79% 30.25 in 10.0 mi Calm Calm - N/A   Clear
3:51 AM -1.8 °F - -6.0 °F 83% 30.22 in 10.0 mi Calm Calm - N/A   Clear
4:51 AM -4.0 °F - -8.9 °F 80% 30.23 in 10.0 mi Calm Calm - N/A   Clear
5:51 AM -2.9 °F - -8.9 °F 76% 30.22 in 10.0 mi Calm Calm - N/A   Clear
6:51 AM -4.0 °F - -8.9 °F 80% 30.22 in 10.0 mi Calm Calm - N/A   Clear
7:51 AM -0.9 °F - -4.9 °F 83% 30.21 in 10.0 mi Calm Calm - N/A   Clear
8:51 AM 7.2 °F - 1.0 °F 76% 30.19 in 8.0 mi Calm Calm - N/A   Clear
9:51 AM 27.1 °F 18.9 °F 4.1 °F 37% 30.17 in 10.0 mi WSW 8.1 mph - N/A   Clear
10:51 AM 30.0 °F 22.4 °F 2.1 °F 30% 30.14 in 10.0 mi SW 8.1 mph - N/A   Clear
11:51 AM 32.9 °F 29.8 °F 3.0 °F 28% 30.09 in 10.0 mi Variable 3.5 mph - N/A   Clear
12:51 PM 34.0 °F 28.0 °F 3.0 °F 27% 30.04 in 10.0 mi West 6.9 mph - N/A   Clear
1:51 PM 34.9 °F 27.7 °F 2.1 °F 25% 30.03 in 10.0 mi SW 9.2 mph 18.4 mph N/A   Clear
2:51 PM 34.9 °F 27.7 °F 2.1 °F 25% 30.01 in 10.0 mi WSW 9.2 mph 16.1 mph N/A   Clear
3:08 PM 33.8 °F 24.8 °F 8.6 °F 35% 29.99 in 0.5 mi West 12.7 mph - 0.00 in Rain Light Freezing Rain
3:15 PM 35.6 °F 29.9 °F 6.8 °F 30% 29.99 in 10.0 mi West 6.9 mph - 0.00 in   Mostly Cloudy
3:51 PM 34.9 °F 28.3 °F 4.1 °F 27% 30.02 in 10.0 mi West 8.1 mph 16.1 mph 0.00 in   Overcast
4:51 PM 32.9 °F 24.7 °F 5.0 °F 31% 30.03 in 10.0 mi West 10.4 mph 26.5 mph N/A   Mostly Cloudy
5:51 PM 32.0 °F 22.1 °F 7.2 °F 35% 30.05 in 10.0 mi West 13.8 mph 24.2 mph N/A   Scattered Clouds
6:51 PM 29.1 °F 23.0 °F 6.1 °F 38% 30.07 in 10.0 mi West 5.8 mph - N/A   Clear
7:51 PM 20.1 °F - 8.1 °F 60% 30.09 in 10.0 mi Calm Calm - N/A   Clear
8:51 PM 18.1 °F - 10.0 °F 71% 30.08 in 10.0 mi Calm Calm - 0.00 in   Clear
9:51 PM 16.2 °F - 9.1 °F 74% 30.07 in 10.0 mi Calm Calm - 0.00 in   Clear
10:51 PM 14.0 °F - 7.2 °F 74% 30.08 in 10.0 mi Calm Calm - N/A   Clear
11:51 PM 13.1 °F - 6.1 °F 74% 30.08 in 10.0 mi Calm Calm - N/A   Clear